Time,TemperatureF,DewpointF,PressureIn,WindDirection,WindDirectionDegrees,WindSpeedMPH,WindSpeedGustMPH,Humidity,HourlyPrecipIn,Conditions,Clouds,dailyrainin,SoftwareType,DateUTC
2013-05-01 00:01:00,68.2,59.2,29.83,WSW,244,6.0,7.0,73,0.00,,OVC110,0.11,VWS V14.01,2013-05-01 04:01:00,
2013-05-01 00:06:00,68.3,59.3,29.83,SW,222,10.0,10.0,73,0.00,,FEW085,0.00,VWS V14.01,2013-05-01 04:06:00,
2013-05-01 00:11:00,68.4,59.4,29.83,South,184,2.0,7.0,73,0.00,,FEW085,0.00,VWS V14.01,2013-05-01 04:11:00,
2013-05-01 00:16:00,68.4,59.4,29.83,South,186,7.0,12.0,73,0.00,,FEW085,0.00,VWS V14.01,2013-05-01 04:16:00,
2013-05-01 00:21:00,68.5,59.5,29.83,SW,217,10.0,10.0,73,0.00,,FEW085,0.00,VWS V14.01,2013-05-01 04:21:00,
2013-05-01 00:26:00,68.4,59.4,29.83,SSW,207,5.0,8.0,73,0.00,,FEW085,0.00,VWS V14.01,2013-05-01 04:26:00,
2013-05-01 00:32:00,68.1,59.1,29.83,SSW,204,4.0,7.0,73,0.00,,FEW085,0.00,VWS V14.01,2013-05-01 04:32:00,
2013-05-01 00:37:00,68.0,59.4,29.84,SW,225,4.0,6.0,74,0.00,,FEW085,0.00,VWS V14.01,2013-05-01 04:37:00,
2013-05-01 00:42:00,68.0,59.4,29.83,SW,227,3.0,5.0,74,0.00,,FEW085,0.00,VWS V14.01,2013-05-01 04:42:00,
2013-05-01 00:47:00,67.9,59.3,29.84,South,182,10.0,10.0,74,0.00,,FEW085,0.00,VWS V14.01,2013-05-01 04:47:00,
2013-05-01 00:52:00,68.0,59.4,29.84,WSW,239,6.0,8.0,74,0.00,,FEW085,0.00,VWS V14.01,2013-05-01 04:52:00,
2013-05-01 00:57:00,67.9,59.3,29.83,SSW,198,7.0,7.0,74,0.00,,FEW085,0.00,VWS V14.01,2013-05-01 04:57:00,
2013-05-01 01:02:00,67.8,59.2,29.84,SW,229,10.0,10.0,74,0.00,,FEW085,0.00,VWS V14.01,2013-05-01 05:02:00,
2013-05-01 01:07:00,67.9,59.3,29.84,SSE,148,6.0,9.0,74,0.00,,OVC110,0.00,VWS V14.01,2013-05-01 05:07:00,
2013-05-01 01:12:00,67.9,59.3,29.84,South,182,9.0,11.0,74,0.00,,OVC110,0.00,VWS V14.01,2013-05-01 05:12:00,
2013-05-01 01:17:00,67.9,59.3,29.84,SW,223,6.0,8.0,74,0.00,,OVC110,0.00,VWS V14.01,2013-05-01 05:17:00,
2013-05-01 01:22:00,67.9,59.7,29.84,SW,219,10.0,10.0,75,0.00,,OVC110,0.00,VWS V14.01,2013-05-01 05:22:00,
2013-05-01 01:27:00,68.0,59.4,29.85,SE,132,5.0,5.0,74,0.00,,OVC110,0.00,VWS V14.01,2013-05-01 05:27:00,
2013-05-01 01:32:00,68.0,59.4,29.85,SW,224,8.0,13.0,74,0.00,,OVC110,0.00,VWS V14.01,2013-05-01 05:32:00,
2013-05-01 01:37:00,68.2,59.6,29.85,SW,226,11.0,12.0,74,0.00,,OVC110,0.00,VWS V14.01,2013-05-01 05:37:00,
2013-05-01 01:42:00,68.4,59.4,29.86,SW,230,13.0,14.0,73,0.00,,OVC110,0.00,VWS V14.01,2013-05-01 05:42:00,
2013-05-01 01:47:00,68.6,59.6,29.86,SSW,209,7.0,10.0,73,0.00,,OVC110,0.00,VWS V14.01,2013-05-01 05:47:00,
2013-05-01 01:52:00,68.8,59.8,29.86,SW,234,11.0,11.0,73,0.00,,OVC110,0.00,VWS V14.01,2013-05-01 05:52:00,
2013-05-01 01:57:00,68.8,59.8,29.86,SW,229,8.0,10.0,73,0.00,,OVC110,0.00,VWS V14.01,2013-05-01 05:57:00,
2013-05-01 02:02:00,68.9,59.9,29.86,SSW,204,3.0,3.0,73,0.00,,OVC080,0.00,VWS V14.01,2013-05-01 06:02:00,
2013-05-01 02:07:00,68.9,59.9,29.87,SW,215,12.0,12.0,73,0.00,,OVC080,0.00,VWS V14.01,2013-05-01 06:07:00,
2013-05-01 02:12:00,68.9,59.9,29.87,SSW,202,9.0,9.0,73,0.00,,OVC080,0.00,VWS V14.01,2013-05-01 06:12:00,
2013-05-01 02:17:00,68.8,59.8,29.87,SW,223,7.0,10.0,73,0.00,,OVC080,0.00,VWS V14.01,2013-05-01 06:17:00,
2013-05-01 02:22:00,69.0,59.6,29.87,SW,227,11.0,11.0,72,0.00,,OVC080,0.00,VWS V14.01,2013-05-01 06:22:00,
2013-05-01 02:27:00,69.1,59.7,29.88,SSW,201,5.0,6.0,72,0.00,,OVC080,0.00,VWS V14.01,2013-05-01 06:27:00,
2013-05-01 02:33:00,69.3,59.9,29.88,SW,231,12.0,14.0,72,0.00,,OVC080,0.00,VWS V14.01,2013-05-01 06:33:00,
2013-05-01 02:38:00,69.4,60.0,29.88,WSW,253,9.0,9.0,72,0.00,,OVC080,0.00,VWS V14.01,2013-05-01 06:38:00,
2013-05-01 02:43:00,69.6,59.8,29.88,SSW,198,7.0,13.0,71,0.00,,OVC080,0.00,VWS V14.01,2013-05-01 06:43:00,
2013-05-01 02:48:00,69.7,59.9,29.88,SSW,196,10.0,14.0,71,0.00,,OVC080,0.00,VWS V14.01,2013-05-01 06:48:00,
2013-05-01 02:53:00,69.8,60.0,29.89,SW,223,6.0,8.0,71,0.00,,OVC080,0.00,VWS V14.01,2013-05-01 06:53:00,
2013-05-01 02:58:00,69.8,60.0,29.89,SSW,207,7.0,7.0,71,0.00,,OVC080,0.00,VWS V14.01,2013-05-01 06:58:00,
2013-05-01 03:03:00,69.8,60.0,29.89,SW,223,10.0,10.0,71,0.00,,OVC090,0.00,VWS V14.01,2013-05-01 07:03:00,
2013-05-01 03:08:00,69.8,60.0,29.89,SSE,163,6.0,9.0,71,0.00,,OVC090,0.00,VWS V14.01,2013-05-01 07:08:00,
2013-05-01 03:13:00,69.6,59.8,29.89,SW,220,8.0,12.0,71,0.00,,OVC090,0.00,VWS V14.01,2013-05-01 07:13:00,
2013-05-01 03:18:00,69.5,60.1,29.89,WSW,251,7.0,7.0,72,0.00,,OVC090,0.00,VWS V14.01,2013-05-01 07:18:00,
2013-05-01 03:23:00,69.5,60.1,29.90,SW,227,9.0,13.0,72,0.00,,OVC090,0.00,VWS V14.01,2013-05-01 07:23:00,
2013-05-01 03:28:00,69.5,60.1,29.89,SW,226,7.0,8.0,72,0.00,,OVC090,0.00,VWS V14.01,2013-05-01 07:28:00,
2013-05-01 03:33:00,69.1,59.7,29.90,SW,216,12.0,12.0,72,0.00,,OVC090,0.00,VWS V14.01,2013-05-01 07:33:00,
2013-05-01 03:38:00,69.0,60.0,29.90,SW,216,10.0,10.0,73,0.00,,OVC090,0.00,VWS V14.01,2013-05-01 07:38:00,
2013-05-01 03:43:00,68.9,59.9,29.90,SW,230,6.0,9.0,73,0.00,,OVC090,0.00,VWS V14.01,2013-05-01 07:43:00,
2013-05-01 03:48:00,68.8,59.8,29.90,SSW,213,6.0,7.0,73,0.00,,OVC090,0.00,VWS V14.01,2013-05-01 07:48:00,
2013-05-01 03:53:00,68.6,59.6,29.90,South,189,3.0,4.0,73,0.00,,OVC090,0.00,VWS V14.01,2013-05-01 07:53:00,
2013-05-01 03:58:00,68.5,59.9,29.91,SW,225,4.0,8.0,74,0.00,,OVC090,0.00,VWS V14.01,2013-05-01 07:58:00,
2013-05-01 04:03:00,68.4,59.8,29.91,SW,219,2.0,3.0,74,0.00,,OVC090,0.00,VWS V14.01,2013-05-01 08:03:00,
2013-05-01 04:08:00,68.2,59.6,29.93,NW,324,6.0,8.0,74,0.00,,OVC090,0.00,VWS V14.01,2013-05-01 08:08:00,
2013-05-01 04:13:00,65.5,53.4,29.94,NNW,346,10.0,13.0,65,0.00,,OVC090,0.00,VWS V14.01,2013-05-01 08:13:00,
2013-05-01 04:18:00,60.9,51.5,29.95,West,271,7.0,7.0,71,0.00,,OVC090,0.00,VWS V14.01,2013-05-01 08:18:00,
2013-05-01 04:23:00,58.1,51.3,29.95,WNW,288,3.0,4.0,78,0.00,,OVC090,0.00,VWS V14.01,2013-05-01 08:23:00,
2013-05-01 04:28:00,57.0,50.9,29.95,NW,311,5.0,8.0,80,0.00,,OVC090,0.00,VWS V14.01,2013-05-01 08:28:00,
2013-05-01 04:33:00,56.2,50.1,29.96,North,2,5.0,7.0,80,0.00,,OVC090,0.00,VWS V14.01,2013-05-01 08:33:00,
2013-05-01 04:38:00,54.5,48.5,29.97,NNW,348,9.0,9.0,80,0.00,,OVC090,0.00,VWS V14.01,2013-05-01 08:38:00,
2013-05-01 04:44:00,53.8,48.4,29.96,WNW,300,1.0,2.0,82,0.00,,OVC090,0.00,VWS V14.01,2013-05-01 08:44:00,
2013-05-01 04:49:00,53.7,48.3,29.98,NNW,331,9.0,9.0,82,0.00,,OVC090,0.00,VWS V14.01,2013-05-01 08:49:00,
2013-05-01 04:54:00,53.4,48.4,29.97,West,271,2.0,2.0,83,0.00,,OVC090,0.00,VWS V14.01,2013-05-01 08:54:00,
2013-05-01 04:59:00,53.5,48.8,29.97,WNW,300,1.0,1.0,84,0.00,,OVC090,0.00,VWS V14.01,2013-05-01 08:59:00,
2013-05-01 05:04:00,53.5,48.8,29.97,North,357,3.0,3.0,84,0.00,,FEW120,0.00,VWS V14.01,2013-05-01 09:04:00,
2013-05-01 05:09:00,53.5,48.8,29.97,North,349,2.0,2.0,84,0.00,,FEW120,0.00,VWS V14.01,2013-05-01 09:09:00,
2013-05-01 05:14:00,53.2,48.8,29.98,North,349,2.0,2.0,85,0.00,,FEW120,0.00,VWS V14.01,2013-05-01 09:14:00,
2013-05-01 05:19:00,53.3,48.9,29.98,NNW,335,1.0,2.0,85,0.00,,FEW120,0.00,VWS V14.01,2013-05-01 09:19:00,
2013-05-01 05:24:00,53.7,49.6,29.98,NW,321,1.0,1.0,86,0.00,,FEW120,0.00,VWS V14.01,2013-05-01 09:24:00,
2013-05-01 05:29:00,54.6,50.5,29.98,NNW,328,2.0,3.0,86,0.00,,FEW120,0.00,VWS V14.01,2013-05-01 09:29:00,
2013-05-01 05:34:00,55.2,51.1,29.98,NW,324,4.0,4.0,86,0.00,,FEW120,0.00,VWS V14.01,2013-05-01 09:34:00,
2013-05-01 05:39:00,55.7,51.3,29.99,WNW,283,3.0,7.0,85,0.00,,FEW120,0.00,VWS V14.01,2013-05-01 09:39:00,
2013-05-01 05:44:00,55.7,51.0,29.99,West,271,2.0,3.0,84,0.00,,FEW120,0.00,VWS V14.01,2013-05-01 09:44:00,
2013-05-01 05:49:00,55.7,50.6,29.99,West,263,2.0,3.0,83,0.00,,FEW120,0.00,VWS V14.01,2013-05-01 09:49:00,
2013-05-01 05:54:00,55.3,49.9,29.99,West,269,3.0,4.0,82,0.00,,FEW120,0.00,VWS V14.01,2013-05-01 09:54:00,
2013-05-01 05:59:00,54.9,49.8,29.99,West,274,3.0,4.0,83,0.00,,FEW120,0.00,VWS V14.01,2013-05-01 09:59:00,
2013-05-01 06:04:00,54.6,49.5,29.98,SW,230,2.0,2.0,83,0.00,,OVC110,0.00,VWS V14.01,2013-05-01 10:04:00,
2013-05-01 06:09:00,54.4,49.7,29.99,West,268,4.0,4.0,84,0.00,,OVC110,0.00,VWS V14.01,2013-05-01 10:09:00,
2013-05-01 06:14:00,54.1,49.4,29.99,WNW,300,2.0,2.0,84,0.00,,OVC110,0.00,VWS V14.01,2013-05-01 10:14:00,
2013-05-01 06:19:00,53.6,49.2,29.99,West,264,1.0,1.0,85,0.00,,OVC110,0.00,VWS V14.01,2013-05-01 10:19:00,
2013-05-01 06:24:00,53.3,49.2,29.99,West,271,2.0,2.0,86,0.00,,OVC110,0.00,VWS V14.01,2013-05-01 10:24:00,
2013-05-01 06:29:00,53.3,49.2,29.99,West,270,1.0,2.0,86,0.00,,OVC110,0.00,VWS V14.01,2013-05-01 10:29:00,
2013-05-01 06:34:00,53.4,49.0,29.99,West,273,1.0,1.0,85,0.00,,OVC110,0.00,VWS V14.01,2013-05-01 10:34:00,
2013-05-01 06:39:00,53.4,49.0,29.99,WNW,283,0.0,0.0,85,0.00,,OVC110,0.00,VWS V14.01,2013-05-01 10:39:00,
2013-05-01 06:44:00,53.2,48.8,29.99,NNE,29,2.0,3.0,85,0.00,,OVC110,0.00,VWS V14.01,2013-05-01 10:44:00,
2013-05-01 06:49:00,53.1,48.7,29.99,East,88,3.0,3.0,85,0.00,,OVC110,0.00,VWS V14.01,2013-05-01 10:49:00,
2013-05-01 06:54:00,52.5,48.8,30.00,ESE,108,2.0,2.0,87,0.00,,OVC110,0.00,VWS V14.01,2013-05-01 10:54:00,
2013-05-01 06:59:00,52.3,48.9,30.00,ESE,111,2.0,3.0,88,0.00,,OVC110,0.00,VWS V14.01,2013-05-01 10:59:00,
2013-05-01 07:04:00,52.5,49.0,30.00,SE,130,2.0,2.0,88,0.00,,OVC080,0.00,VWS V14.01,2013-05-01 11:04:00,
2013-05-01 07:09:00,52.9,49.1,30.00,SE,130,2.0,2.0,87,0.00,,OVC080,0.00,VWS V14.01,2013-05-01 11:09:00,
2013-05-01 07:14:00,52.7,49.0,30.00,SE,138,2.0,2.0,87,0.00,,OVC080,0.00,VWS V14.01,2013-05-01 11:14:00,
2013-05-01 07:19:00,53.1,49.3,30.00,SE,125,3.0,3.0,87,0.00,,OVC080,0.00,VWS V14.01,2013-05-01 11:19:00,
2013-05-01 07:24:00,53.6,49.8,30.00,SE,144,2.0,2.0,87,0.00,,OVC080,0.00,VWS V14.01,2013-05-01 11:24:00,
2013-05-01 07:29:00,54.0,50.2,30.00,SSE,159,2.0,2.0,87,0.00,,OVC080,0.00,VWS V14.01,2013-05-01 11:29:00,
2013-05-01 07:34:00,54.4,50.6,30.00,East,98,2.0,2.0,87,0.00,,OVC080,0.00,VWS V14.01,2013-05-01 11:34:00,
2013-05-01 07:39:00,54.8,51.0,30.00,ESE,110,2.0,3.0,87,0.00,,OVC080,0.00,VWS V14.01,2013-05-01 11:39:00,
2013-05-01 07:44:00,55.8,51.7,30.00,ESE,111,2.0,2.0,86,0.00,,OVC080,0.00,VWS V14.01,2013-05-01 11:44:00,
2013-05-01 07:49:00,56.8,51.7,30.00,ESE,108,4.0,4.0,83,0.00,,OVC080,0.00,VWS V14.01,2013-05-01 11:49:00,
2013-05-01 07:54:00,57.5,52.1,30.00,SE,129,2.0,4.0,82,0.00,,OVC080,0.00,VWS V14.01,2013-05-01 11:54:00,
2013-05-01 07:59:00,57.9,52.5,30.00,SSW,200,3.0,6.0,82,0.00,,OVC080,0.00,VWS V14.01,2013-05-01 11:59:00,
2013-05-01 08:04:00,58.6,52.5,30.00,SE,140,2.0,2.0,80,0.00,,-RA,0.00,VWS V14.01,2013-05-01 12:04:00,
2013-05-01 08:10:00,59.2,52.7,30.00,SW,219,3.0,3.0,79,0.00,,-RA,0.00,VWS V14.01,2013-05-01 12:10:00,
2013-05-01 08:15:00,59.7,53.2,30.01,SSW,210,1.0,2.0,79,0.00,,-RA,0.00,VWS V14.01,2013-05-01 12:15:00,
2013-05-01 08:20:00,60.1,53.2,30.01,SW,218,4.0,4.0,78,0.00,,-RA,0.00,VWS V14.01,2013-05-01 12:20:00,
2013-05-01 08:25:00,60.7,53.5,30.01,WSW,248,3.0,3.0,77,0.00,,-RA,0.00,VWS V14.01,2013-05-01 12:25:00,
2013-05-01 08:30:00,61.1,53.8,30.01,SW,221,3.0,5.0,77,0.00,,-RA,0.00,VWS V14.01,2013-05-01 12:30:00,
2013-05-01 08:35:00,62.0,54.4,30.02,SW,220,2.0,3.0,76,0.00,,-RA,0.00,VWS V14.01,2013-05-01 12:35:00,
2013-05-01 08:40:00,62.7,54.7,30.02,WSW,238,3.0,4.0,75,0.00,,-RA,0.00,VWS V14.01,2013-05-01 12:40:00,
2013-05-01 08:45:00,63.5,55.4,30.02,SSW,194,1.0,2.0,75,0.00,,-RA,0.00,VWS V14.01,2013-05-01 12:45:00,
2013-05-01 08:50:00,64.1,55.7,30.02,West,266,2.0,4.0,74,0.00,,-RA,0.00,VWS V14.01,2013-05-01 12:50:00,
2013-05-01 08:55:00,64.6,55.8,30.02,SW,216,3.0,4.0,73,0.00,,-RA,0.00,VWS V14.01,2013-05-01 12:55:00,
2013-05-01 09:00:00,65.1,56.6,30.02,SW,231,4.0,6.0,74,0.00,,-RA,0.00,VWS V14.01,2013-05-01 13:00:00,
2013-05-01 09:05:00,65.5,56.6,30.03,WSW,242,2.0,2.0,73,0.00,,OVC065,0.00,VWS V14.01,2013-05-01 13:05:00,
2013-05-01 09:10:00,66.1,57.2,30.03,South,190,1.0,1.0,73,0.00,,OVC065,0.00,VWS V14.01,2013-05-01 13:10:00,
2013-05-01 09:15:00,66.6,57.3,30.03,SSW,205,1.0,2.0,72,0.00,,OVC065,0.00,VWS V14.01,2013-05-01 13:15:00,
2013-05-01 09:20:00,67.0,57.7,30.03,SW,215,2.0,2.0,72,0.00,,OVC065,0.00,VWS V14.01,2013-05-01 13:20:00,
2013-05-01 09:25:00,67.6,58.3,30.03,SW,218,1.0,2.0,72,0.00,,OVC065,0.00,VWS V14.01,2013-05-01 13:25:00,
2013-05-01 09:30:00,68.3,58.2,30.03,West,270,3.0,3.0,70,0.00,,OVC065,0.00,VWS V14.01,2013-05-01 13:30:00,
2013-05-01 09:35:00,68.9,59.1,30.03,SSW,200,4.0,5.0,71,0.00,,OVC065,0.00,VWS V14.01,2013-05-01 13:35:00,
2013-05-01 09:40:00,69.0,59.2,30.03,SE,132,3.0,4.0,71,0.00,,OVC065,0.00,VWS V14.01,2013-05-01 13:40:00,
2013-05-01 09:45:00,69.4,59.2,30.03,SW,225,0.0,1.0,70,0.00,,OVC065,0.00,VWS V14.01,2013-05-01 13:45:00,
2013-05-01 09:50:00,70.5,59.8,30.03,SSW,200,3.0,4.0,69,0.00,,OVC065,0.00,VWS V14.01,2013-05-01 13:50:00,
2013-05-01 09:55:00,70.9,59.4,30.03,NW,323,3.0,5.0,67,0.00,,OVC065,0.00,VWS V14.01,2013-05-01 13:55:00,
2013-05-01 10:00:00,69.5,56.8,30.04,WNW,283,2.0,4.0,64,0.00,,OVC065,0.00,VWS V14.01,2013-05-01 14:00:00,
2013-05-01 10:05:00,68.1,55.5,30.04,NNW,330,8.0,10.0,64,0.00,,OVC060,0.00,VWS V14.01,2013-05-01 14:05:00,
2013-05-01 10:10:00,67.5,55.3,30.05,WNW,286,4.0,10.0,65,0.00,,OVC060,0.00,VWS V14.01,2013-05-01 14:10:00,
2013-05-01 10:15:00,64.8,52.8,30.05,NW,315,5.0,9.0,65,0.00,,OVC060,0.00,VWS V14.01,2013-05-01 14:15:00,
2013-05-01 10:20:00,61.5,50.5,30.05,NNW,329,8.0,11.0,67,0.00,,OVC060,0.00,VWS V14.01,2013-05-01 14:20:00,
2013-05-01 10:25:00,59.4,50.8,30.05,NW,308,2.0,4.0,73,0.00,,OVC060,0.00,VWS V14.01,2013-05-01 14:25:00,
2013-05-01 10:31:00,59.5,51.2,30.05,West,271,6.0,8.0,74,0.00,,OVC060,0.00,VWS V14.01,2013-05-01 14:31:00,
2013-05-01 10:36:00,59.8,50.8,30.06,WNW,300,5.0,8.0,72,0.00,,OVC060,0.00,VWS V14.01,2013-05-01 14:36:00,
2013-05-01 10:41:00,59.8,51.1,30.06,West,274,3.0,6.0,73,0.00,,OVC060,0.00,VWS V14.01,2013-05-01 14:41:00,
2013-05-01 10:46:00,61.2,51.7,30.06,NNW,337,5.0,6.0,71,0.00,,OVC060,0.00,VWS V14.01,2013-05-01 14:46:00,
2013-05-01 10:51:00,61.5,52.4,30.06,WNW,301,5.0,7.0,72,0.00,,OVC060,0.00,VWS V14.01,2013-05-01 14:51:00,
2013-05-01 10:56:00,61.3,52.2,30.07,West,274,4.0,4.0,72,0.00,,OVC060,0.00,VWS V14.01,2013-05-01 14:56:00,
2013-05-01 11:01:00,62.0,52.9,30.06,NNW,330,4.0,5.0,72,0.00,,OVC060,0.00,VWS V14.01,2013-05-01 15:01:00,
2013-05-01 11:06:00,63.1,53.2,30.07,West,278,6.0,8.0,70,0.00,,-RA,0.00,VWS V14.01,2013-05-01 15:06:00,
2013-05-01 11:11:00,63.6,53.7,30.07,NNW,342,5.0,9.0,70,0.00,,-RA,0.00,VWS V14.01,2013-05-01 15:11:00,
2013-05-01 11:16:00,63.0,52.7,30.08,West,276,10.0,10.0,69,0.00,,-RA,0.00,VWS V14.01,2013-05-01 15:16:00,
2013-05-01 11:21:00,62.8,54.0,30.07,North,349,9.0,10.0,73,0.00,,-RA,0.00,VWS V14.01,2013-05-01 15:21:00,
2013-05-01 11:26:00,62.4,53.6,30.07,NW,315,5.0,5.0,73,0.00,,-RA,0.00,VWS V14.01,2013-05-01 15:26:00,
2013-05-01 11:31:00,62.5,54.1,30.08,NNW,331,8.0,10.0,74,0.00,,-RA,0.00,VWS V14.01,2013-05-01 15:31:00,
2013-05-01 11:36:00,62.4,54.0,30.08,West,276,6.0,7.0,74,0.00,,-RA,0.00,VWS V14.01,2013-05-01 15:36:00,
2013-05-01 11:41:00,62.9,54.1,30.07,NW,325,8.0,9.0,73,0.00,,-RA,0.00,VWS V14.01,2013-05-01 15:41:00,
2013-05-01 11:46:00,63.9,54.7,30.08,NNW,333,5.0,8.0,72,0.00,,-RA,0.00,VWS V14.01,2013-05-01 15:46:00,
2013-05-01 11:51:00,64.8,55.6,30.08,NW,306,8.0,8.0,72,0.00,,-RA,0.00,VWS V14.01,2013-05-01 15:51:00,
2013-05-01 11:56:00,65.2,55.6,30.08,NNW,345,4.0,5.0,71,0.00,,-RA,0.00,VWS V14.01,2013-05-01 15:56:00,
2013-05-01 12:01:00,65.6,55.6,30.08,NW,311,4.0,5.0,70,0.00,,-RA,0.00,VWS V14.01,2013-05-01 16:01:00,
2013-05-01 12:06:00,65.5,55.1,30.08,NNW,333,4.0,6.0,69,0.00,,OVC036,0.00,VWS V14.01,2013-05-01 16:06:00,
2013-05-01 12:11:00,65.3,55.3,30.08,NNW,335,5.0,6.0,70,0.00,,OVC036,0.00,VWS V14.01,2013-05-01 16:11:00,
2013-05-01 12:16:00,65.5,55.5,30.09,WNW,294,7.0,9.0,70,0.00,,OVC036,0.00,VWS V14.01,2013-05-01 16:16:00,
2013-05-01 12:21:00,65.5,55.1,30.09,West,277,6.0,8.0,69,0.00,,OVC036,0.00,VWS V14.01,2013-05-01 16:21:00,
2013-05-01 12:26:00,65.0,55.0,30.09,WNW,293,7.0,8.0,70,0.00,,OVC036,0.00,VWS V14.01,2013-05-01 16:26:00,
2013-05-01 12:31:00,65.5,55.1,30.09,NW,326,10.0,11.0,69,0.00,,OVC036,0.00,VWS V14.01,2013-05-01 16:31:00,
2013-05-01 12:37:00,66.5,55.2,30.09,NNW,346,6.0,9.0,67,0.00,,OVC036,0.00,VWS V14.01,2013-05-01 16:37:00,
2013-05-01 12:42:00,66.7,55.8,30.09,North,353,4.0,6.0,68,0.00,,OVC036,0.00,VWS V14.01,2013-05-01 16:42:00,
2013-05-01 12:47:00,66.8,55.1,30.09,NNE,13,3.0,3.0,66,0.00,,OVC036,0.00,VWS V14.01,2013-05-01 16:47:00,
2013-05-01 12:52:00,67.5,54.9,30.09,North,2,6.0,6.0,64,0.00,,OVC036,0.00,VWS V14.01,2013-05-01 16:52:00,
2013-05-01 12:57:00,67.4,55.7,30.09,North,7,6.0,8.0,66,0.00,,OVC036,0.00,VWS V14.01,2013-05-01 16:57:00,
2013-05-01 13:02:00,67.2,55.5,30.10,West,275,4.0,5.0,66,0.00,,OVC036,0.00,VWS V14.01,2013-05-01 17:02:00,
2013-05-01 13:07:00,68.0,55.8,30.09,NNW,346,5.0,9.0,65,0.00,,OVC065,0.00,VWS V14.01,2013-05-01 17:07:00,
2013-05-01 13:12:00,67.4,55.7,30.10,North,2,6.0,8.0,66,0.00,,OVC065,0.00,VWS V14.01,2013-05-01 17:12:00,
2013-05-01 13:17:00,67.0,55.3,30.10,NNW,346,6.0,9.0,66,0.00,,OVC065,0.00,VWS V14.01,2013-05-01 17:17:00,
2013-05-01 13:22:00,66.9,54.8,30.10,WNW,295,7.0,8.0,65,0.00,,OVC065,0.00,VWS V14.01,2013-05-01 17:22:00,
2013-05-01 13:27:00,66.7,55.0,30.10,North,7,11.0,12.0,66,0.00,,OVC065,0.00,VWS V14.01,2013-05-01 17:27:00,
2013-05-01 13:32:00,67.8,54.3,30.10,North,350,13.0,13.0,62,0.00,,OVC065,0.00,VWS V14.01,2013-05-01 17:32:00,
2013-05-01 13:37:00,66.7,54.6,30.10,NW,325,4.0,10.0,65,0.00,,OVC065,0.00,VWS V14.01,2013-05-01 17:37:00,
2013-05-01 13:42:00,67.9,54.8,30.10,NNW,337,13.0,13.0,63,0.00,,OVC065,0.00,VWS V14.01,2013-05-01 17:42:00,
2013-05-01 13:47:00,66.3,54.2,30.10,North,352,11.0,12.0,65,0.00,,OVC065,0.00,VWS V14.01,2013-05-01 17:47:00,
2013-05-01 13:52:00,66.2,54.9,30.10,NW,321,5.0,7.0,67,0.00,,OVC065,0.00,VWS V14.01,2013-05-01 17:52:00,
2013-05-01 13:57:00,67.6,56.3,30.10,North,357,5.0,6.0,67,0.00,,OVC065,0.00,VWS V14.01,2013-05-01 17:57:00,
2013-05-01 14:02:00,68.0,55.4,30.10,NW,323,11.0,11.0,64,0.00,,OVC065,0.00,VWS V14.01,2013-05-01 18:02:00,
2013-05-01 14:07:00,68.2,55.6,30.10,NW,323,6.0,10.0,64,0.00,,OVC065,0.00,VWS V14.01,2013-05-01 18:07:00,
2013-05-01 14:12:00,68.0,55.8,30.10,NNW,327,6.0,8.0,65,0.00,,OVC065,0.00,VWS V14.01,2013-05-01 18:12:00,
2013-05-01 14:17:00,67.7,56.4,30.10,NNW,345,4.0,6.0,67,0.00,,OVC065,0.00,VWS V14.01,2013-05-01 18:17:00,
2013-05-01 14:22:00,67.4,55.7,30.10,NNW,332,9.0,9.0,66,0.00,,OVC065,0.00,VWS V14.01,2013-05-01 18:22:00,
2013-05-01 14:27:00,67.5,55.3,30.10,WNW,284,9.0,9.0,65,0.00,,OVC065,0.00,VWS V14.01,2013-05-01 18:27:00,
2013-05-01 14:32:00,68.0,55.8,30.10,WSW,256,4.0,9.0,65,0.00,,OVC065,0.00,VWS V14.01,2013-05-01 18:32:00,
2013-05-01 14:38:00,68.0,56.2,30.10,North,357,1.0,2.0,66,0.00,,OVC065,0.00,VWS V14.01,2013-05-01 18:38:00,
2013-05-01 14:43:00,68.6,56.0,30.10,North,11,4.0,9.0,64,0.00,,OVC065,0.00,VWS V14.01,2013-05-01 18:43:00,
2013-05-01 14:48:00,69.2,56.5,30.10,NW,315,4.0,4.0,64,0.00,,OVC065,0.00,VWS V14.01,2013-05-01 18:48:00,
2013-05-01 14:53:00,70.0,56.0,30.10,NW,311,10.0,10.0,61,0.00,,OVC065,0.00,VWS V14.01,2013-05-01 18:53:00,
2013-05-01 14:58:00,69.6,56.0,30.10,NNW,329,4.0,7.0,62,0.00,,OVC065,0.00,VWS V14.01,2013-05-01 18:58:00,
2013-05-01 15:03:00,70.4,57.2,30.10,SW,231,4.0,5.0,63,0.00,,OVC060,0.00,VWS V14.01,2013-05-01 19:03:00,
2013-05-01 15:08:00,70.9,57.2,30.11,SW,226,2.0,5.0,62,0.00,,OVC060,0.00,VWS V14.01,2013-05-01 19:08:00,
2013-05-01 15:13:00,70.9,57.2,30.10,WSW,247,7.0,10.0,62,0.00,,OVC060,0.00,VWS V14.01,2013-05-01 19:13:00,
2013-05-01 15:18:00,70.8,56.7,30.10,West,280,7.0,7.0,61,0.00,,OVC060,0.00,VWS V14.01,2013-05-01 19:18:00,
2013-05-01 15:23:00,71.9,58.6,30.10,WSW,252,1.0,2.0,63,0.00,,OVC060,0.00,VWS V14.01,2013-05-01 19:23:00,
2013-05-01 15:28:00,72.2,57.6,30.10,WSW,244,5.0,5.0,60,0.00,,OVC060,0.00,VWS V14.01,2013-05-01 19:28:00,
2013-05-01 15:33:00,71.5,56.9,30.10,WSW,249,8.0,9.0,60,0.00,,OVC060,0.00,VWS V14.01,2013-05-01 19:33:00,
2013-05-01 15:38:00,71.7,58.0,30.10,WSW,244,2.0,3.0,62,0.00,,OVC060,0.00,VWS V14.01,2013-05-01 19:38:00,
2013-05-01 15:43:00,71.8,57.6,30.10,SW,231,3.0,4.0,61,0.00,,OVC060,0.00,VWS V14.01,2013-05-01 19:43:00,
2013-05-01 15:48:00,72.6,57.5,30.10,NE,44,3.0,3.0,59,0.00,,OVC060,0.00,VWS V14.01,2013-05-01 19:48:00,
2013-05-01 15:53:00,73.8,57.6,30.10,North,7,0.0,1.0,57,0.00,,OVC060,0.00,VWS V14.01,2013-05-01 19:53:00,
2013-05-01 15:58:00,74.3,57.6,30.10,NNW,338,3.0,3.0,56,0.00,,OVC060,0.00,VWS V14.01,2013-05-01 19:58:00,
2013-05-01 16:03:00,72.7,55.6,30.10,NW,315,9.0,10.0,55,0.00,,OVC060,0.00,VWS V14.01,2013-05-01 20:03:00,
2013-05-01 16:08:00,72.1,56.5,30.10,NW,315,6.0,6.0,58,0.00,,OVC060,0.00,VWS V14.01,2013-05-01 20:08:00,
2013-05-01 16:13:00,70.3,55.3,30.11,NNW,329,9.0,10.0,59,0.00,,OVC060,0.00,VWS V14.01,2013-05-01 20:13:00,
2013-05-01 16:18:00,69.2,55.2,30.11,NW,320,6.0,6.0,61,0.00,,OVC060,0.00,VWS V14.01,2013-05-01 20:18:00,
2013-05-01 16:23:00,69.4,55.4,30.11,NW,304,8.0,9.0,61,0.00,,OVC060,0.00,VWS V14.01,2013-05-01 20:23:00,
2013-05-01 16:28:00,69.6,56.0,30.11,WNW,297,7.0,9.0,62,0.00,,OVC060,0.00,VWS V14.01,2013-05-01 20:28:00,
2013-05-01 16:33:00,70.0,56.8,30.11,North,357,9.0,9.0,63,0.00,,OVC060,0.00,VWS V14.01,2013-05-01 20:33:00,
2013-05-01 16:38:00,71.2,56.6,30.11,NE,39,6.0,11.0,60,0.00,,OVC060,0.00,VWS V14.01,2013-05-01 20:38:00,
2013-05-01 16:44:00,71.1,54.6,30.11,ENE,76,14.0,14.0,56,0.00,,OVC060,0.00,VWS V14.01,2013-05-01 20:44:00,
2013-05-01 16:49:00,71.0,55.0,30.11,NE,52,6.0,8.0,57,0.00,,OVC060,0.00,VWS V14.01,2013-05-01 20:49:00,
2013-05-01 16:54:00,70.6,54.2,30.11,ENE,62,9.0,9.0,56,0.00,,OVC060,0.00,VWS V14.01,2013-05-01 20:54:00,
2013-05-01 16:59:00,70.3,53.4,30.11,NE,51,11.0,13.0,55,0.00,,OVC060,0.00,VWS V14.01,2013-05-01 20:59:00,
2013-05-01 17:04:00,70.1,52.7,30.12,NE,43,12.0,14.0,54,0.00,,OVC060,0.00,VWS V14.01,2013-05-01 21:04:00,
2013-05-01 17:09:00,69.8,51.9,30.12,ENE,61,12.0,14.0,53,0.00,,OVC060,0.00,VWS V14.01,2013-05-01 21:09:00,
2013-05-01 17:14:00,69.4,51.0,30.12,ENE,72,8.0,12.0,52,0.00,,OVC060,0.00,VWS V14.01,2013-05-01 21:14:00,
2013-05-01 17:19:00,69.1,51.3,30.12,East,88,14.0,14.0,53,0.00,,OVC060,0.00,VWS V14.01,2013-05-01 21:19:00,
2013-05-01 17:24:00,68.8,50.5,30.12,ENE,69,12.0,16.0,52,0.00,,OVC060,0.00,VWS V14.01,2013-05-01 21:24:00,
2013-05-01 17:29:00,68.4,50.1,30.12,NE,43,12.0,12.0,52,0.00,,OVC060,0.00,VWS V14.01,2013-05-01 21:29:00,
2013-05-01 17:34:00,68.2,50.4,30.12,ENE,70,9.0,13.0,53,0.00,,OVC060,0.00,VWS V14.01,2013-05-01 21:34:00,
2013-05-01 17:39:00,68.1,49.8,30.13,NE,51,7.0,10.0,52,0.00,,OVC060,0.00,VWS V14.01,2013-05-01 21:39:00,
2013-05-01 17:44:00,68.0,49.7,30.13,East,84,13.0,15.0,52,0.00,,OVC060,0.00,VWS V14.01,2013-05-01 21:44:00,
2013-05-01 17:49:00,68.4,50.1,30.13,East,86,11.0,12.0,52,0.00,,OVC060,0.00,VWS V14.01,2013-05-01 21:49:00,
2013-05-01 17:54:00,68.3,49.5,30.13,NE,49,11.0,13.0,51,0.00,,OVC060,0.00,VWS V14.01,2013-05-01 21:54:00,
2013-05-01 17:59:00,67.9,49.7,30.14,East,96,9.0,10.0,52,0.00,,OVC060,0.00,VWS V14.01,2013-05-01 21:59:00,
2013-05-01 18:04:00,68.4,50.6,30.14,East,80,8.0,9.0,53,0.00,,OVC046,0.00,VWS V14.01,2013-05-01 22:04:00,
2013-05-01 18:09:00,68.1,49.8,30.14,NE,52,7.0,9.0,52,0.00,,OVC046,0.00,VWS V14.01,2013-05-01 22:09:00,
2013-05-01 18:14:00,67.9,49.1,30.14,East,88,10.0,10.0,51,0.00,,OVC046,0.00,VWS V14.01,2013-05-01 22:14:00,
2013-05-01 18:19:00,67.5,48.8,30.14,NE,54,7.0,7.0,51,0.00,,OVC046,0.00,VWS V14.01,2013-05-01 22:19:00,
2013-05-01 18:24:00,67.6,48.8,30.14,ENE,67,8.0,10.0,51,0.00,,OVC046,0.00,VWS V14.01,2013-05-01 22:24:00,
2013-05-01 18:29:00,67.5,48.8,30.14,ENE,65,9.0,9.0,51,0.00,,OVC046,0.00,VWS V14.01,2013-05-01 22:29:00,
2013-05-01 18:34:00,67.9,49.1,30.14,NNW,344,5.0,7.0,51,0.00,,OVC046,0.00,VWS V14.01,2013-05-01 22:34:00,
2013-05-01 18:39:00,67.9,49.1,30.14,NNE,18,8.0,9.0,51,0.00,,OVC046,0.00,VWS V14.01,2013-05-01 22:39:00,
2013-05-01 18:44:00,67.4,48.1,30.15,NE,53,6.0,10.0,50,0.00,,OVC046,0.00,VWS V14.01,2013-05-01 22:44:00,
2013-05-01 18:50:00,66.9,48.2,30.15,ENE,71,6.0,9.0,51,0.00,,OVC046,0.00,VWS V14.01,2013-05-01 22:50:00,
2013-05-01 18:55:00,66.7,48.5,30.15,NNE,27,5.0,6.0,52,0.00,,OVC046,0.00,VWS V14.01,2013-05-01 22:55:00,
2013-05-01 19:00:00,66.6,47.9,30.15,ENE,57,4.0,6.0,51,0.00,,OVC046,0.00,VWS V14.01,2013-05-01 23:00:00,
2013-05-01 19:05:00,66.7,49.0,30.15,NNE,15,8.0,9.0,53,0.00,,OVC060,0.00,VWS V14.01,2013-05-01 23:05:00,
2013-05-01 19:10:00,66.3,48.2,30.15,North,357,8.0,8.0,52,0.00,,OVC060,0.00,VWS V14.01,2013-05-01 23:10:00,
2013-05-01 19:15:00,65.7,47.1,30.16,NNE,32,8.0,9.0,51,0.00,,OVC060,0.00,VWS V14.01,2013-05-01 23:15:00,
2013-05-01 19:20:00,65.1,46.5,30.16,NE,35,6.0,10.0,51,0.00,,OVC060,0.00,VWS V14.01,2013-05-01 23:20:00,
2013-05-01 19:25:00,64.7,45.7,30.16,NE,51,7.0,9.0,50,0.00,,OVC060,0.00,VWS V14.01,2013-05-01 23:25:00,
2013-05-01 19:30:00,64.2,45.7,30.16,NNE,19,3.0,5.0,51,0.00,,OVC060,0.00,VWS V14.01,2013-05-01 23:30:00,
2013-05-01 19:35:00,63.8,45.3,30.17,North,357,8.0,9.0,51,0.00,,OVC060,0.00,VWS V14.01,2013-05-01 23:35:00,
2013-05-01 19:40:00,63.2,44.8,30.17,NNE,15,5.0,5.0,51,0.00,,OVC060,0.00,VWS V14.01,2013-05-01 23:40:00,
2013-05-01 19:45:00,62.7,44.3,30.17,NE,40,6.0,8.0,51,0.00,,OVC060,0.00,VWS V14.01,2013-05-01 23:45:00,
2013-05-01 19:50:00,62.2,43.9,30.17,NNW,342,4.0,4.0,51,0.00,,OVC060,0.00,VWS V14.01,2013-05-01 23:50:00,
2013-05-01 19:55:00,61.7,43.4,30.18,North,353,6.0,8.0,51,0.00,,OVC060,0.00,VWS V14.01,2013-05-01 23:55:00,
2013-05-01 20:00:00,61.0,42.8,30.18,NNW,338,6.0,8.0,51,0.00,,OVC060,0.00,VWS V14.01,2013-05-02 00:00:00,
2013-05-01 20:05:00,60.3,42.6,30.18,NNE,28,5.0,6.0,52,0.00,,OVC006,0.00,VWS V14.01,2013-05-02 00:05:00,
2013-05-01 20:10:00,59.8,42.2,30.19,North,7,6.0,6.0,52,0.00,,OVC006,0.00,VWS V14.01,2013-05-02 00:10:00,
2013-05-01 20:15:00,59.1,43.4,30.19,North,349,8.0,8.0,56,0.00,,OVC006,0.00,VWS V14.01,2013-05-02 00:15:00,
2013-05-01 20:20:00,58.4,41.3,30.19,NNE,24,9.0,11.0,53,0.00,,OVC006,0.00,VWS V14.01,2013-05-02 00:20:00,
2013-05-01 20:25:00,57.9,41.4,30.20,NE,50,2.0,3.0,54,0.00,,OVC006,0.00,VWS V14.01,2013-05-02 00:25:00,
2013-05-01 20:30:00,56.9,42.7,30.20,NW,317,3.0,3.0,59,0.00,,OVC006,0.00,VWS V14.01,2013-05-02 00:30:00,
2013-05-01 20:35:00,56.1,42.4,30.21,NNW,344,3.0,4.0,60,0.00,,OVC006,0.00,VWS V14.01,2013-05-02 00:35:00,
2013-05-01 20:40:00,55.7,41.2,30.21,NNE,29,3.0,4.0,58,0.00,,OVC006,0.00,VWS V14.01,2013-05-02 00:40:00,
2013-05-01 20:45:00,55.5,41.0,30.22,NE,42,10.0,10.0,58,0.00,,OVC006,0.00,VWS V14.01,2013-05-02 00:45:00,
2013-05-01 20:50:00,55.2,40.7,30.22,ENE,66,6.0,6.0,58,0.00,,OVC006,0.00,VWS V14.01,2013-05-02 00:50:00,
2013-05-01 20:55:00,54.8,40.8,30.22,NE,42,7.0,7.0,59,0.00,,OVC006,0.00,VWS V14.01,2013-05-02 00:55:00,
2013-05-01 21:00:00,54.4,40.0,30.22,NE,47,6.0,7.0,58,0.00,,OVC006,0.00,VWS V14.01,2013-05-02 01:00:00,
2013-05-01 21:05:00,54.0,40.0,30.23,NNE,28,4.0,6.0,59,0.00,,,0.00,VWS V14.01,2013-05-02 01:05:00,
2013-05-01 21:10:00,53.5,39.5,30.23,NNE,16,5.0,5.0,59,0.00,,,0.00,VWS V14.01,2013-05-02 01:10:00,
2013-05-01 21:15:00,53.2,39.7,30.23,NNE,16,8.0,8.0,60,0.00,,,0.00,VWS V14.01,2013-05-02 01:15:00,
2013-05-01 21:20:00,52.9,39.4,30.23,NNE,17,7.0,7.0,60,0.00,,,0.00,VWS V14.01,2013-05-02 01:20:00,
2013-05-01 21:26:00,52.6,39.1,30.23,NNE,26,6.0,9.0,60,0.00,,,0.00,VWS V14.01,2013-05-02 01:26:00,
2013-05-01 21:31:00,52.4,38.9,30.23,NNW,345,9.0,10.0,60,0.00,,,0.00,VWS V14.01,2013-05-02 01:31:00,
2013-05-01 21:36:00,52.1,39.1,30.24,NNW,346,5.0,8.0,61,0.00,,,0.00,VWS V14.01,2013-05-02 01:36:00,
2013-05-01 21:41:00,51.7,38.7,30.24,NNE,22,5.0,5.0,61,0.00,,,0.00,VWS V14.01,2013-05-02 01:41:00,
2013-05-01 21:46:00,51.4,38.4,30.24,NW,317,5.0,5.0,61,0.00,,,0.00,VWS V14.01,2013-05-02 01:46:00,
2013-05-01 21:51:00,51.1,38.5,30.24,NNW,348,4.0,5.0,62,0.00,,,0.00,VWS V14.01,2013-05-02 01:51:00,
2013-05-01 21:56:00,50.8,38.3,30.25,North,351,4.0,5.0,62,0.00,,,0.00,VWS V14.01,2013-05-02 01:56:00,
2013-05-01 22:01:00,50.5,37.6,30.25,North,349,10.0,10.0,61,0.00,,,0.00,VWS V14.01,2013-05-02 02:01:00,
2013-05-01 22:06:00,50.2,37.7,30.25,North,7,5.0,8.0,62,0.00,,OVC002,0.00,VWS V14.01,2013-05-02 02:06:00,
2013-05-01 22:11:00,49.9,37.4,30.25,North,2,6.0,6.0,62,0.00,,OVC002,0.00,VWS V14.01,2013-05-02 02:11:00,
2013-05-01 22:16:00,49.5,37.0,30.25,North,352,4.0,5.0,62,0.00,,OVC002,0.00,VWS V14.01,2013-05-02 02:16:00,
2013-05-01 22:21:00,49.3,36.8,30.26,North,352,10.0,11.0,62,0.00,,OVC002,0.00,VWS V14.01,2013-05-02 02:21:00,
2013-05-01 22:26:00,49.0,37.0,30.26,NNW,340,5.0,6.0,63,0.00,,OVC002,0.00,VWS V14.01,2013-05-02 02:26:00,
2013-05-01 22:31:00,48.6,36.6,30.26,NNW,347,5.0,5.0,63,0.00,,OVC002,0.00,VWS V14.01,2013-05-02 02:31:00,
2013-05-01 22:36:00,48.3,36.3,30.26,North,357,8.0,9.0,63,0.00,,OVC002,0.00,VWS V14.01,2013-05-02 02:36:00,
2013-05-01 22:41:00,48.0,36.4,30.26,NNW,340,5.0,8.0,64,0.00,,OVC002,0.00,VWS V14.01,2013-05-02 02:41:00,
2013-05-01 22:46:00,47.7,36.1,30.26,North,7,6.0,10.0,64,0.00,,OVC002,0.00,VWS V14.01,2013-05-02 02:46:00,
2013-05-01 22:51:00,47.6,36.4,30.26,North,357,2.0,5.0,65,0.00,,OVC002,0.00,VWS V14.01,2013-05-02 02:51:00,
2013-05-01 22:56:00,47.4,35.8,30.26,NE,46,4.0,4.0,64,0.00,,OVC002,0.00,VWS V14.01,2013-05-02 02:56:00,
2013-05-01 23:01:00,47.3,36.2,30.26,NNE,22,5.0,5.0,65,0.00,,OVC002,0.00,VWS V14.01,2013-05-02 03:01:00,
2013-05-01 23:06:00,47.2,36.0,30.27,North,357,2.0,2.0,65,0.00,,OVC050,0.00,VWS V14.01,2013-05-02 03:06:00,
2013-05-01 23:11:00,47.0,35.9,30.26,North,357,6.0,6.0,65,0.00,,OVC050,0.00,VWS V14.01,2013-05-02 03:11:00,
2013-05-01 23:16:00,46.7,36.0,30.26,North,357,3.0,3.0,66,0.00,,OVC050,0.00,VWS V14.01,2013-05-02 03:16:00,
2013-05-01 23:22:00,46.4,36.0,30.26,NNW,340,4.0,4.0,67,0.00,,OVC050,0.00,VWS V14.01,2013-05-02 03:22:00,
2013-05-01 23:27:00,46.0,36.0,30.26,NNE,26,4.0,4.0,68,0.00,,OVC050,0.00,VWS V14.01,2013-05-02 03:27:00,
2013-05-01 23:32:00,45.7,35.8,30.26,NW,326,3.0,3.0,68,0.00,,OVC050,0.00,VWS V14.01,2013-05-02 03:32:00,
2013-05-01 23:37:00,45.5,35.6,30.26,North,353,5.0,5.0,68,0.00,,OVC050,0.00,VWS V14.01,2013-05-02 03:37:00,
2013-05-01 23:42:00,45.3,36.1,30.26,North,2,2.0,2.0,70,0.00,,OVC050,0.00,VWS V14.01,2013-05-02 03:42:00,
2013-05-01 23:47:00,45.3,35.7,30.25,North,353,4.0,4.0,69,0.00,,OVC050,0.00,VWS V14.01,2013-05-02 03:47:00,
2013-05-01 23:52:00,45.2,36.0,30.26,NNE,13,5.0,5.0,70,0.00,,OVC050,0.00,VWS V14.01,2013-05-02 03:52:00,
2013-05-01 23:57:00,45.2,36.0,30.26,North,7,3.0,4.0,70,0.00,,OVC050,0.00,VWS V14.01,2013-05-02 03:57:00,